Terug naar catalogus

CZ-6A DEB

ActiefPO
NORAD 55550·DEBRIS·🇨🇳 China

Gelanceerd Nov 11, 2022 vanaf Taiyuan Satellite Launch Center

Loading…

Volgende Passages (komende 24 uur)

TLE

VersSource: Space-Track

Epoch: Sep 14, 2026, 03:12 UTC

1 55550U 22151YY  26257.13397913  .00008887  00000-0  12810-2 0  9994
2 55550  98.6210 330.2580 0070897   0.0139   0.1057 14.74835902197220

Volg CZ-6A DEB in realtime met AllMySat

Download on the App Store